sat.trackr.live / text

‹ back to catalog

STARLINK-32314

NORAD 61709 · 2024-196C

PAYLOAD ACTIVE UNKNOWN

§ Identity

Operator
Country
US
Launch date
2024-10-30
Launch site
AFETR
Launch vehicle
Mass (kg)
RCS (m²)

Purposes: comms

External: N2YO · Heavens-Above · Gunter

§ Orbital elements

Epoch: 2026-05-25T03:17:59.579232Z

Period
94.11 min
Inclination
53.1607°
Eccentricity
0.0000991
Mean motion
15.30192341 rev/d
Perigee alt
474.6 km
Apogee alt
475.9 km
Semi-major
6,853.4 km
B*
-1.9349e-5
RAAN
106.0640°
Arg perigee
96.4602°
Mean anomaly
263.6512°
Rev number
8,886

§ Raw data

STARLINK-323141 61709U 24196C   26145.13749513 -.00000932  00000+0 -19349-4 0  99912 61709  53.1607 106.0640 0000991  96.4602 263.6512 15.30192341 88864

JSON: /api/v1/satellites/61709 · /tle

For live sub-satellite position, see the globe view (requires WebGL).

§ Visibility from observer

Set your observer location to see the next 7 days of passes ≥ 10°. The values pass through the URL so the page stays shareable.

No JS? Fill the form by hand. The geolocation button needs JavaScript.